User: anonymous
Location: Mount Kobau Star Party
(49.1167°N, 119.7333°W)
Time: 02:18:09
(UTC-07:00)
Language:

TSX-5 - Orbit

View from above orbital plane
View from above orbital plane
View from above satellite
View from above satellite

Ground track
Ground track

The orbit data is extracted from the following two-line orbital elements,

1 26374U 00030A   14202.83264308  .00002672  00000-0  24989-3 0  3422
2 26374 068.9350 062.8304 0697602 032.4170 041.5220 13.93055148707462
Epoch (UTC): 21 July 2014 19:59:00
Eccentricity: 0.0697602
inclination: 68.9350°
perigee height: 409 km
apogee height: 1427 km
right ascension of ascending node: 62.8304°
argument of perigee: 32.4170°
revolutions per day: 13.93055148
mean anomaly at epoch: 41.5220°
orbit number at epoch: 70746

The dashed part of the orbit path shows where the satellite is in the earth's shadow,  

DLR